CZ-6A DEB, 55539

Orbit data source: Space-Track

CZ-6A DEB, 55539 is space debris in SSO originally from a launch on Fri, 11 Nov 2022 UTC launched from the Taiyaun Space Center, China (TSC). Debris objects in space refer to the collection of defunct objects orbiting the Earth. Examples of debris include non-operational satellites, rocket bodies, and fragments generated from explosions, collisions, or faulty payload assembly.

Loading next visibility...
Identifier
55539, 2022-151YM
Orbit
SSO
Country
Flag of CNCN / PRC
Related business
Manufacturer
SAST
Mission
Spacecraft
Bus & Motor
Unknown
Mass
Unknown
Launch date (UTC)
2022-11-11 (4 years ago)
Launch vehicle
Unknown
Launch site
Taiyaun Space Center, China (TSC)
Object type
Payload
Rocket body
Debris
Shape & HBR
Unknown shape, 0.1 m
Radar Cross Section
Small (<0.1 m²)

Expand to show TLE details & history
Last TLE update: 2 days ago

TLE from 2 days ago
0 CZ-6A DEB
1 55539U 22151YM  26170.98326790  .00003278  00000-0  13063-2 0  9993
2 55539  98.8190 190.4152 0064590 332.8260  26.9546 14.28137121180982
Epoch: 2026-06-19T23:35Z
TLE epoch observation values (Epoch: 2026-06-19T23:35:54.346Z)
Latitude
0.00003°
Longitude
-71.76567°
Altitude
759.625 km
Speed
7.496 km/s
True Right ascension
12h 41m 39s
True Declination
0° 00' 00"
Sunlit
Object was in daylight at epoch
Visualization orbit readout
Latitude
Unknown
Longitude
Unknown
Altitude
Unknown
Speed
Unknown
Apparent Right ascension
Unknown
Apparent Declination
Unknown
Sunlit
N/A
Visualization observer readout
Local Sidereal Time
21:30:54
Azimuth
Unknown
Elevation
Unknown
Doppler factor
Unknown
Orbital elements
Apogee altitude
841.449 km
Perigee altitude
748.785 km
Semi-major axis
7,173.254 km
Eccentricity
0.00646
Inclination
98.819°
RAAN
190.4152°
Arg. of periapsis
332.826°
True anomaly
27.29253°
Mean anomaly
26.9546°
Eccentric anomaly
27.12332°
Mean motion
3.57247 °/min
Orbital period
100.77 mins
BSTAR
0.0013063
Loading maneuver chart data...
Computing Atmospheric mass density...
Loading historical data...
Loading historical data...
Loading historical data...
Loading historical data...
Loading historical data...
Loading historical data...
Loading historical data...

Documentation

Showing up to 5 results
|